Location: Unspecified
(0.0000°N, 0.0000°E)
Time: 04:51:21
(UTC+00:00)

Transit 2A - Pass Details

Date: 10 October 2020
Orbit: 593 x 966 km, 66.7° (Epoch: 28 October)

Event Time Altitude Azimuth Distance (km) Brightness Sun altitude
Rises 15:36:23 0° 343° (NNW) 3,167 9.3 32.3°
Reaches altitude 10° 15:38:52 10° 345° (NNW) 2,187 8.5 31.7°
Maximum altitude 15:43:46 75° 70° (ENE) 690 6.1 30.5°
Drops below altitude 10° 15:48:16 10° 155° (SSE) 2,003 8.1 29.4°
Sets 15:50:27 0° 157° (SSE) 2,879 8.8 28.9°
